| time (UTC) | temp F | wind direction | speed MPH | gust MPH | rain 1hr in | rain 24hr in | rain mn in | humidity % | barometer mb |
| 20260903092040 | 76 | 130 | 3.0 | 10.0 | 0.00 | 0.00 | 0.00 | 76 | 1012.9 |
| 20260903091551 | 76 | 247 | 3.0 | 14.0 | 0.00 | 0.00 | 0.00 | 76 | 1012.6 |
| 20260903091039 | 75 | 216 | 7.0 | 14.0 | 0.00 | 0.00 | 0.00 | 76 | 1012.6 |
| 20260903090540 | 75 | 192 | 5.0 | 12.0 | 0.00 | 0.00 | 0.00 | 76 | 1012.6 |
| 20260903090040 | 75 | 233 | 5.0 | 12.0 | 0.00 | 0.00 | 0.00 | 76 | 1012.6 |
| 20260903085542 | 75 | 189 | 4.0 | 9.0 | 0.00 | 0.00 | 0.00 | 76 | 1012.6 |
| 20260903085038 | 75 | 229 | 3.0 | 8.0 | 0.00 | 0.00 | 0.00 | 75 | 1012.7 |
| 20260903084537 | 75 | 218 | 3.0 | 9.0 | 0.00 | 0.00 | 0.00 | 75 | 1012.6 |
| 20260903084037 | 74 | 173 | 4.0 | 9.0 | 0.00 | 0.00 | 0.00 | 76 | 1012.5 |
| 20260903083537 | 74 | 248 | 2.0 | 7.0 | 0.00 | 0.00 | 0.00 | 76 | 1012.4 |
| 20260903083037 | 74 | 226 | 2.0 | 8.0 | 0.00 | 0.00 | 0.00 | 76 | 1012.5 |
| 20260903082537 | 74 | 218 | 3.0 | 8.0 | 0.00 | 0.00 | 0.00 | 76 | 1012.5 |
| 20260903082037 | 74 | 225 | 3.0 | 8.0 | 0.00 | 0.00 | 0.00 | 76 | 1012.5 |
| 20260903081538 | 74 | 156 | 4.0 | 8.0 | 0.00 | 0.00 | 0.00 | 76 | 1012.4 |
| 20260903081037 | 74 | 188 | 4.0 | 9.0 | 0.00 | 0.00 | 0.00 | 76 | 1012.5 |
| 20260903080536 | 74 | 187 | 4.0 | 9.0 | 0.00 | 0.00 | 0.00 | 76 | 1012.5 |
| 20260903080042 | 74 | 221 | 3.0 | 6.0 | 0.00 | 0.00 | 0.00 | 75 | 1012.5 |
| 20260903075539 | 74 | 173 | 3.0 | 6.0 | 0.00 | 0.00 | 0.00 | 75 | 1012.5 |
| 20260903075137 | 74 | 192 | 3.0 | 6.0 | 0.00 | 0.00 | 0.00 | 75 | 1012.7 |
| 20260903074539 | 74 | 160 | 4.0 | 6.0 | 0.00 | 0.00 | 0.00 | 75 | 1012.8 |
| 20260903074034 | 74 | 218 | 2.0 | 6.0 | 0.00 | 0.00 | 0.00 | 75 | 1012.8 |
| 20260903073533 | 74 | 211 | 2.0 | 5.0 | 0.00 | 0.00 | 0.00 | 74 | 1013.0 |
| 20260903073037 | 75 | 218 | 2.0 | 4.0 | 0.00 | 0.00 | 0.00 | 74 | 1013.0 |
| 20260903072532 | 75 | 240 | 1.0 | 5.0 | 0.00 | 0.00 | 0.00 | 74 | 1012.8 |
| 20260903072033 | 75 | 208 | 2.0 | 7.0 | 0.00 | 0.00 | 0.00 | 74 | 1012.7 |
| 20260903071532 | 75 | 218 | 3.0 | 7.0 | 0.00 | 0.00 | 0.00 | 74 | 1012.7 |
| 20260903071030 | 75 | 196 | 3.0 | 6.0 | 0.00 | 0.00 | 0.00 | 73 | 1012.7 |
| 20260903070529 | 76 | 192 | 2.0 | 4.0 | 0.00 | 0.00 | 0.00 | 73 | 1012.7 |
| 20260903070029 | 76 | 226 | 3.0 | 4.0 | 0.00 | 0.00 | 0.00 | 73 | 1012.9 |
| 20260903065528 | 76 | 224 | 1.0 | 3.0 | 0.00 | 0.00 | 0.00 | 73 | 1012.9 |
| 20260903065026 | 76 | 245 | 1.0 | 6.0 | 0.00 | 0.00 | 0.00 | 72 | 1013.0 |
| 20260903064525 | 76 | 356 | 3.0 | 6.0 | 0.00 | 0.00 | 0.00 | 72 | 1013.2 |
| 20260903064025 | 76 | 229 | 1.0 | 3.0 | 0.00 | 0.00 | 0.00 | 72 | 1013.2 |
| 20260903063524 | 77 | 84 | 0.0 | 3.0 | 0.00 | 0.00 | 0.00 | 72 | 1013.3 |
| 20260903063024 | 77 | 218 | 0.0 | 5.0 | 0.00 | 0.00 | 0.00 | 71 | 1013.4 |
| 20260903062522 | 77 | 130 | 1.0 | 10.0 | 0.00 | 0.00 | 0.00 | 71 | 1013.5 |
| 20260903062021 | 77 | 356 | 1.0 | 10.0 | 0.00 | 0.00 | 0.00 | 71 | 1013.5 |
| 20260903061522 | 78 | 328 | 4.0 | 15.0 | 0.00 | 0.00 | 0.00 | 71 | 1013.6 |
| 20260903061021 | 78 | 309 | 6.0 | 15.0 | 0.00 | 0.00 | 0.00 | 70 | 1013.8 |
| 20260903060519 | 78 | 301 | 7.0 | 15.0 | 0.00 | 0.00 | 0.00 | 70 | 1013.8 |
| 20260903060017 | 79 | 4 | 5.0 | 15.0 | 0.00 | 0.00 | 0.00 | 70 | 1013.9 |
| 20260903055516 | 79 | 11 | 8.0 | 20.0 | 0.00 | 0.00 | 0.00 | 70 | 1013.8 |
| 20260903055014 | 80 | 329 | 6.0 | 25.0 | 0.00 | 0.00 | 0.00 | 72 | 1013.9 |
| 20260903054516 | 80 | 328 | 9.0 | 25.0 | 0.00 | 0.00 | 0.00 | 74 | 1013.9 |
| 20260903054012 | 81 | 320 | 4.0 | 14.0 | 0.00 | 0.00 | 0.00 | 76 | 1013.9 |
| 20260903053510 | 81 | 10 | 3.0 | 15.0 | 0.00 | 0.00 | 0.00 | 76 | 1013.1 |
| 20260903053009 | 81 | 221 | 6.0 | 15.0 | 0.00 | 0.00 | 0.00 | 75 | 1012.8 |
| 20260903052507 | 81 | 231 | 4.0 | 14.0 | 0.00 | 0.00 | 0.00 | 75 | 1012.7 |
| 20260903052007 | 81 | 220 | 7.0 | 12.0 | 0.00 | 0.00 | 0.00 | 75 | 1012.7 |
| 20260903051507 | 81 | 236 | 4.0 | 14.0 | 0.00 | 0.00 | 0.00 | 75 | 1012.6 |
| 20260903051005 | 81 | 247 | 7.0 | 14.0 | 0.00 | 0.00 | 0.00 | 75 | 1012.6 |
| 20260903050504 | 81 | 243 | 7.0 | 13.0 | 0.00 | 0.00 | 0.00 | 75 | 1012.5 |
| 20260903050003 | 81 | 227 | 5.0 | 16.0 | 0.00 | 0.00 | 0.00 | 75 | 1012.4 |
| 20260903045504 | 81 | 223 | 8.0 | 18.0 | 0.00 | 0.00 | 0.00 | 74 | 1012.2 |
| 20260903045001 | 81 | 288 | 8.0 | 18.0 | 0.00 | 0.00 | 0.00 | 74 | 1012.2 |
| 20260903044600 | 81 | 199 | 8.0 | 16.0 | 0.00 | 0.00 | 0.00 | 74 | 1012.1 |
| 20260903044100 | 81 | 222 | 7.0 | 16.0 | 0.00 | 0.00 | 0.00 | 74 | 1012.1 |
| 20260903043603 | 81 | 228 | 9.0 | 17.0 | 0.00 | 0.00 | 0.00 | 74 | 1012.0 |
| 20260903043102 | 81 | 345 | 7.0 | 18.0 | 0.00 | 0.00 | 0.00 | 74 | 1012.1 |
| 20260903042656 | 81 | 274 | 7.0 | 18.0 | 0.00 | 0.00 | 0.00 | 74 | 1011.9 |
| 20260903042055 | 82 | 255 | 6.0 | 18.0 | 0.00 | 0.00 | 0.00 | 73 | 1011.9 |
| 20260903041557 | 82 | 215 | 9.0 | 18.0 | 0.00 | 0.00 | 0.00 | 73 | 1011.9 |
| 20260903041053 | 82 | 236 | 7.0 | 17.0 | 0.00 | 0.00 | 0.00 | 73 | 1011.7 |
| 20260903040553 | 82 | 248 | 9.0 | 17.0 | 0.00 | 0.00 | 0.00 | 73 | 1011.7 |
| 20260903040051 | 82 | 213 | 6.0 | 14.0 | 0.00 | 0.00 | 0.00 | 72 | 1011.6 |
| 20260903035550 | 82 | 236 | 7.0 | 15.0 | 0.00 | 0.00 | 0.00 | 72 | 1011.6 |
| 20260903035050 | 82 | 247 | 7.0 | 16.0 | 0.00 | 0.00 | 0.00 | 72 | 1011.6 |
| 20260903034553 | 82 | 232 | 6.0 | 16.0 | 0.00 | 0.00 | 0.00 | 72 | 1011.4 |
| 20260903034051 | 82 | 217 | 6.0 | 17.0 | 0.00 | 0.00 | 0.00 | 72 | 1011.4 |
| 20260903033553 | 82 | 232 | 9.0 | 17.0 | 0.00 | 0.00 | 0.00 | 72 | 1011.2 |
| 20260903033049 | 82 | 183 | 9.0 | 17.0 | 0.00 | 0.00 | 0.00 | 72 | 1011.1 |
| 20260903032549 | 82 | 234 | 7.0 | 19.0 | 0.00 | 0.00 | 0.00 | 71 | 1011.1 |
| 20260903032048 | 82 | 206 | 10.0 | 19.0 | 0.00 | 0.00 | 0.00 | 71 | 1011.1 |
| 20260903031548 | 82 | 224 | 9.0 | 20.0 | 0.00 | 0.00 | 0.00 | 71 | 1011.2 |
| 20260903031047 | 82 | 213 | 10.0 | 20.0 | 0.00 | 0.00 | 0.00 | 71 | 1011.3 |
| 20260903030546 | 82 | 202 | 9.0 | 21.0 | 0.00 | 0.00 | 0.00 | 71 | 1011.5 |
| 20260903030051 | 82 | 199 | 8.0 | 21.0 | 0.00 | 0.00 | 0.00 | 71 | 1011.7 |
| 20260903025545 | 82 | 236 | 7.0 | 16.0 | 0.00 | 0.00 | 0.00 | 71 | 1011.8 |
| 20260903025044 | 82 | 197 | 7.0 | 16.0 | 0.00 | 0.00 | 0.00 | 71 | 1011.9 |
| 20260903024543 | 83 | 248 | 9.0 | 16.0 | 0.00 | 0.00 | 0.00 | 71 | 1012.0 |
| 20260903024044 | 83 | 245 | 5.0 | 15.0 | 0.00 | 0.00 | 0.00 | 71 | 1012.1 |
| 20260903023543 | 83 | 228 | 8.0 | 17.0 | 0.00 | 0.00 | 0.00 | 71 | 1012.2 |
| 20260903023046 | 83 | 240 | 6.0 | 17.0 | 0.00 | 0.00 | 0.00 | 71 | 1012.2 |
| 20260903022543 | 83 | 205 | 7.0 | 16.0 | 0.00 | 0.00 | 0.00 | 71 | 1012.2 |
| 20260903022042 | 83 | 223 | 8.0 | 14.0 | 0.00 | 0.00 | 0.00 | 71 | 1012.3 |
| 20260903021548 | 83 | 215 | 7.0 | 14.0 | 0.00 | 0.00 | 0.00 | 71 | 1012.2 |
| 20260903021043 | 83 | 243 | 6.0 | 14.0 | 0.00 | 0.00 | 0.00 | 71 | 1012.3 |
| 20260903020542 | 83 | 264 | 7.0 | 18.0 | 0.00 | 0.00 | 0.00 | 71 | 1012.3 |
| 20260903020043 | 83 | 209 | 10.0 | 18.0 | 0.00 | 0.00 | 0.00 | 71 | 1012.2 |
| 20260903015542 | 83 | 218 | 8.0 | 12.0 | 0.00 | 0.00 | 0.00 | 71 | 1012.2 |
| 20260903015043 | 83 | 193 | 6.0 | 12.0 | 0.00 | 0.00 | 0.00 | 71 | 1012.3 |
| 20260903014551 | 83 | 236 | 5.0 | 12.0 | 0.00 | 0.00 | 0.00 | 71 | 1012.3 |
| 20260903014041 | 83 | 238 | 5.0 | 11.0 | 0.00 | 0.00 | 0.00 | 71 | 1012.2 |
| 20260903013541 | 83 | 215 | 5.0 | 11.0 | 0.00 | 0.00 | 0.00 | 71 | 1012.3 |
| 20260903013041 | 83 | 156 | 4.0 | 11.0 | 0.00 | 0.00 | 0.00 | 71 | 1012.3 |
| 20260903012541 | 83 | 225 | 6.0 | 11.0 | 0.00 | 0.00 | 0.00 | 71 | 1012.5 |
| 20260903012041 | 84 | 199 | 6.0 | 11.0 | 0.00 | 0.00 | 0.00 | 70 | 1012.5 |
| 20260903011600 | 84 | 218 | 3.0 | 10.0 | 0.00 | 0.00 | 0.00 | 70 | 1012.5 |
| 20260903011041 | 84 | 194 | 5.0 | 10.0 | 0.00 | 0.00 | 0.00 | 70 | 1012.5 |
| 20260903010540 | 84 | 215 | 3.0 | 10.0 | 0.00 | 0.00 | 0.00 | 70 | 1012.5 |
| 20260903010043 | 84 | 202 | 6.0 | 10.0 | 0.00 | 0.00 | 0.00 | 69 | 1012.4 |
| 20260903005540 | 84 | 158 | 5.0 | 9.0 | 0.00 | 0.00 | 0.00 | 69 | 1012.4 |
| 20260903005042 | 84 | 239 | 3.0 | 9.0 | 0.00 | 0.00 | 0.00 | 68 | 1012.2 |
| 20260903004539 | 85 | 208 | 3.0 | 8.0 | 0.00 | 0.00 | 0.00 | 68 | 1012.2 |
| 20260903004040 | 85 | 182 | 2.0 | 7.0 | 0.00 | 0.00 | 0.00 | 67 | 1012.2 |
| 20260903003540 | 85 | 218 | 3.0 | 7.0 | 0.00 | 0.00 | 0.00 | 67 | 1012.2 |
| 20260903003041 | 85 | 205 | 3.0 | 7.0 | 0.00 | 0.00 | 0.00 | 66 | 1012.2 |
| 20260903002539 | 85 | 173 | 2.0 | 5.0 | 0.00 | 0.00 | 0.00 | 66 | 1012.1 |
| 20260903002038 | 86 | 201 | 2.0 | 7.0 | 0.00 | 0.00 | 0.00 | 66 | 1012.1 |
| 20260903001539 | 86 | 221 | 3.0 | 9.0 | 0.00 | 0.00 | 0.00 | 66 | 1012.0 |
| 20260903001038 | 86 | 41 | 2.0 | 11.0 | 0.00 | 0.00 | 0.00 | 65 | 1012.1 |
| 20260903000538 | 86 | 264 | 3.0 | 11.0 | 0.00 | 0.00 | 0.00 | 65 | 1012.1 |
| 20260903000049 | 87 | 245 | 2.0 | 10.0 | 0.00 | 0.00 | 0.00 | 65 | 1012.0 |
| 20260902235540 | 87 | 233 | 3.0 | 10.0 | 0.00 | 0.00 | 0.00 | 65 | 1012.1 |
| 20260902235038 | 87 | 241 | 4.0 | 8.0 | 0.00 | 0.00 | 0.00 | 65 | 1012.0 |
| 20260902234541 | 87 | 221 | 5.0 | 9.0 | 0.00 | 0.00 | 0.00 | 64 | 1012.1 |
| 20260902234037 | 87 | 356 | 4.0 | 11.0 | 0.00 | 0.00 | 0.00 | 64 | 1012.1 |
| 20260902233537 | 88 | 233 | 6.0 | 11.0 | 0.00 | 0.00 | 0.00 | 64 | 1012.0 |
| 20260902233049 | 88 | 214 | 6.0 | 12.0 | 0.00 | 0.00 | 0.00 | 64 | 1012.0 |
| 20260902232536 | 88 | 247 | 6.0 | 12.0 | 0.00 | 0.00 | 0.00 | 64 | 1012.0 |
| 20260902232041 | 88 | 210 | 7.0 | 12.0 | 0.00 | 0.00 | 0.00 | 64 | 1012.1 |
| 20260902231538 | 88 | 218 | 2.0 | 11.0 | 0.00 | 0.00 | 0.00 | 63 | 1012.1 |
| 20260902231039 | 89 | 226 | 5.0 | 10.0 | 0.00 | 0.00 | 0.00 | 63 | 1012.1 |
| 20260902230539 | 89 | 225 | 2.0 | 17.0 | 0.00 | 0.00 | 0.00 | 63 | 1012.1 |
| 20260902230041 | 89 | 302 | 7.0 | 17.0 | 0.00 | 0.00 | 0.00 | 62 | 1012.1 |
| 20260902225539 | 89 | 229 | 4.0 | 10.0 | 0.00 | 0.00 | 0.00 | 62 | 1012.0 |
| 20260902225038 | 89 | 229 | 3.0 | 14.0 | 0.00 | 0.00 | 0.00 | 62 | 1012.1 |
| 20260902224534 | 89 | 264 | 7.0 | 15.0 | 0.00 | 0.00 | 0.00 | 62 | 1012.1 |
| 20260902224033 | 89 | 213 | 5.0 | 15.0 | 0.00 | 0.00 | 0.00 | 62 | 1012.1 |
| 20260902223533 | 89 | 210 | 6.0 | 12.0 | 0.00 | 0.00 | 0.00 | 62 | 1012.1 |
| 20260902223033 | 89 | 218 | 3.0 | 14.0 | 0.00 | 0.00 | 0.00 | 61 | 1012.0 |
| 20260902222533 | 89 | 235 | 4.0 | 15.0 | 0.00 | 0.00 | 0.00 | 61 | 1012.0 |
| 20260902222035 | 90 | 238 | 7.0 | 19.0 | 0.00 | 0.00 | 0.00 | 60 | 1012.0 |
| 20260902221532 | 90 | 273 | 7.0 | 19.0 | 0.00 | 0.00 | 0.00 | 60 | 1011.9 |
| 20260902221032 | 90 | 233 | 3.0 | 17.0 | 0.00 | 0.00 | 0.00 | 60 | 1011.9 |
| 20260902220532 | 90 | 222 | 4.0 | 17.0 | 0.00 | 0.00 | 0.00 | 60 | 1011.9 |
| 20260902220043 | 90 | 218 | 6.0 | 19.0 | 0.00 | 0.00 | 0.00 | 60 | 1011.8 |
| 20260902215530 | 90 | 226 | 10.0 | 19.0 | 0.00 | 0.00 | 0.00 | 60 | 1011.9 |
| 20260902215031 | 90 | 222 | 6.0 | 19.0 | 0.00 | 0.00 | 0.00 | 59 | 1011.9 |
| 20260902214548 | 91 | 278 | 5.0 | 18.0 | 0.00 | 0.00 | 0.00 | 58 | 1012.0 |
| 20260902214029 | 91 | 231 | 6.0 | 18.0 | 0.00 | 0.00 | 0.00 | 59 | 1012.0 |
| 20260902213528 | 91 | 274 | 4.0 | 16.0 | 0.00 | 0.00 | 0.00 | 58 | 1012.0 |
| 20260902213027 | 91 | 240 | 4.0 | 18.0 | 0.00 | 0.00 | 0.00 | 59 | 1012.1 |
| 20260902212527 | 91 | 260 | 8.0 | 18.0 | 0.00 | 0.00 | 0.00 | 59 | 1012.0 |
| 20260902212026 | 91 | 271 | 10.0 | 16.0 | 0.00 | 0.00 | 0.00 | 59 | 1012.1 |
| 20260902211525 | 91 | 226 | 9.0 | 19.0 | 0.00 | 0.00 | 0.00 | 60 | 1012.2 |
| 20260902211023 | 91 | 239 | 8.0 | 23.0 | 0.00 | 0.00 | 0.00 | 59 | 1012.3 |
| 20260902210524 | 91 | 218 | 12.0 | 23.0 | 0.00 | 0.00 | 0.00 | 59 | 1012.2 |
| 20260902210025 | 91 | 84 | 7.0 | 19.0 | 0.00 | 0.00 | 0.00 | 60 | 1012.2 |
| 20260902205524 | 91 | 259 | 11.0 | 22.0 | 0.00 | 0.00 | 0.00 | 59 | 1012.3 |
| 20260902205020 | 91 | 215 | 9.0 | 22.0 | 0.00 | 0.00 | 0.00 | 59 | 1012.4 |
| 20260902204519 | 91 | 196 | 9.0 | 20.0 | 0.00 | 0.00 | 0.00 | 60 | 1012.4 |
| 20260902204017 | 91 | 41 | 8.0 | 19.0 | 0.00 | 0.00 | 0.00 | 60 | 1012.6 |
| 20260902203517 | 91 | 209 | 5.0 | 13.0 | 0.00 | 0.00 | 0.00 | 61 | 1012.6 |
| 20260902203016 | 91 | 252 | 6.0 | 15.0 | 0.00 | 0.00 | 0.00 | 60 | 1012.6 |
| 20260902202516 | 91 | 227 | 7.0 | 17.0 | 0.00 | 0.00 | 0.00 | 60 | 1012.8 |
| 20260902202015 | 92 | 290 | 7.0 | 19.0 | 0.00 | 0.00 | 0.00 | 59 | 1012.7 |
| 20260902201529 | 92 | 356 | 8.0 | 19.0 | 0.00 | 0.00 | 0.00 | 58 | 1012.8 |
| 20260902201014 | 92 | 290 | 9.0 | 22.0 | 0.00 | 0.00 | 0.00 | 59 | 1012.8 |
| 20260902200514 | 92 | 236 | 10.0 | 22.0 | 0.00 | 0.00 | 0.00 | 60 | 1012.9 |
| 20260902200013 | 92 | 201 | 8.0 | 25.0 | 0.00 | 0.00 | 0.00 | 60 | 1012.9 |
| 20260902195511 | 92 | 218 | 13.0 | 25.0 | 0.00 | 0.00 | 0.00 | 59 | 1012.9 |
| 20260902195010 | 92 | 243 | 11.0 | 20.0 | 0.00 | 0.00 | 0.00 | 59 | 1013.0 |
| 20260902194510 | 92 | 197 | 10.0 | 20.0 | 0.00 | 0.00 | 0.00 | 59 | 1013.0 |
| 20260902194009 | 92 | 245 | 10.0 | 18.0 | 0.00 | 0.00 | 0.00 | 60 | 1013.1 |
| 20260902193509 | 92 | 217 | 6.0 | 17.0 | 0.00 | 0.00 | 0.00 | 60 | 1013.1 |
| 20260902193007 | 92 | 195 | 8.0 | 17.0 | 0.00 | 0.00 | 0.00 | 60 | 1013.2 |
| 20260902192506 | 92 | 356 | 4.0 | 18.0 | 0.00 | 0.00 | 0.00 | 60 | 1013.2 |
| 20260902192005 | 92 | 238 | 8.0 | 19.0 | 0.00 | 0.00 | 0.00 | 60 | 1013.3 |
| 20260902191513 | 92 | 264 | 5.0 | 19.0 | 0.00 | 0.00 | 0.00 | 58 | 1013.4 |
| 20260902191004 | 92 | 220 | 9.0 | 17.0 | 0.00 | 0.00 | 0.00 | 59 | 1013.4 |
| 20260902190506 | 92 | 200 | 5.0 | 17.0 | 0.00 | 0.00 | 0.00 | 59 | 1013.4 |
| 20260902190003 | 93 | 228 | 6.0 | 14.0 | 0.00 | 0.00 | 0.00 | 58 | 1013.4 |
| 20260902185500 | 93 | 226 | 8.0 | 19.0 | 0.00 | 0.00 | 0.00 | 57 | 1013.5 |
| 20260902185100 | 93 | 220 | 8.0 | 19.0 | 0.00 | 0.00 | 0.00 | 57 | 1013.6 |
| 20260902184604 | 93 | 295 | 4.0 | 14.0 | 0.00 | 0.00 | 0.00 | 58 | 1013.5 |
| 20260902184100 | 93 | 345 | 5.0 | 17.0 | 0.00 | 0.00 | 0.00 | 57 | 1013.5 |
| 20260902183557 | 93 | 189 | 11.0 | 18.0 | 0.00 | 0.00 | 0.00 | 57 | 1013.7 |
| 20260902183105 | 94 | 356 | 5.0 | 19.0 | 0.00 | 0.00 | 0.00 | 56 | 1013.7 |
| 20260902182556 | 94 | 273 | 8.0 | 17.0 | 0.00 | 0.00 | 0.00 | 57 | 1013.8 |
| 20260902182055 | 93 | 230 | 6.0 | 19.0 | 0.00 | 0.00 | 0.00 | 57 | 1013.9 |
| 20260902181556 | 93 | 228 | 11.0 | 19.0 | 0.00 | 0.00 | 0.00 | 58 | 1013.9 |
| 20260902181053 | 94 | 156 | 4.0 | 14.0 | 0.00 | 0.00 | 0.00 | 57 | 1013.9 |
| 20260902180553 | 93 | 252 | 4.0 | 16.0 | 0.00 | 0.00 | 0.00 | 58 | 1013.9 |
| 20260902180052 | 93 | 241 | 5.0 | 18.0 | 0.00 | 0.00 | 0.00 | 57 | 1014.0 |
| 20260902175552 | 93 | 264 | 11.0 | 18.0 | 0.00 | 0.00 | 0.00 | 57 | 1014.0 |
| 20260902175053 | 92 | 182 | 4.0 | 13.0 | 0.00 | 0.00 | 0.00 | 57 | 1014.1 |
| 20260902174553 | 92 | 229 | 5.0 | 16.0 | 0.00 | 0.00 | 0.00 | 58 | 1014.2 |
| 20260902174048 | 92 | 240 | 7.0 | 16.0 | 0.00 | 0.00 | 0.00 | 58 | 1014.3 |
| 20260902173547 | 92 | 234 | 7.0 | 15.0 | 0.00 | 0.00 | 0.00 | 58 | 1014.4 |
| 20260902173108 | 92 | 276 | 5.0 | 15.0 | 0.00 | 0.00 | 0.00 | 59 | 1014.4 |
| 20260902172545 | 91 | 248 | 8.0 | 15.0 | 0.00 | 0.00 | 0.00 | 59 | 1014.5 |
| 20260902172044 | 91 | 163 | 9.0 | 15.0 | 0.00 | 0.00 | 0.00 | 59 | 1014.5 |
| 20260902171545 | 91 | 234 | 6.0 | 13.0 | 0.00 | 0.00 | 0.00 | 61 | 1014.6 |
| 20260902171042 | 90 | 313 | 7.0 | 13.0 | 0.00 | 0.00 | 0.00 | 62 | 1014.6 |
| 20260902170542 | 90 | 356 | 3.0 | 12.0 | 0.00 | 0.00 | 0.00 | 62 | 1014.7 |
| 20260902170040 | 90 | 220 | 5.0 | 15.0 | 0.00 | 0.00 | 0.00 | 62 | 1014.8 |
| 20260902165539 | 90 | 212 | 5.0 | 15.0 | 0.00 | 0.00 | 0.00 | 63 | 1014.7 |
| 20260902165042 | 89 | 189 | 9.0 | 15.0 | 0.00 | 0.00 | 0.00 | 64 | 1014.7 |
| 20260902164537 | 89 | 271 | 4.0 | 13.0 | 0.00 | 0.00 | 0.00 | 65 | 1014.7 |
| 20260902164035 | 88 | 214 | 5.0 | 13.0 | 0.00 | 0.00 | 0.00 | 67 | 1014.8 |
| 20260902163534 | 88 | 245 | 4.0 | 12.0 | 0.00 | 0.00 | 0.00 | 66 | 1014.8 |
| 20260902163033 | 88 | 232 | 5.0 | 12.0 | 0.00 | 0.00 | 0.00 | 66 | 1014.9 |
| 20260902162532 | 87 | 218 | 7.0 | 11.0 | 0.00 | 0.00 | 0.00 | 67 | 1014.9 |
| 20260902162032 | 87 | 160 | 5.0 | 11.0 | 0.00 | 0.00 | 0.00 | 67 | 1015.0 |
| 20260902161530 | 87 | 215 | 4.0 | 11.0 | 0.00 | 0.00 | 0.00 | 68 | 1015.0 |
| 20260902161029 | 86 | 212 | 3.0 | 11.0 | 0.00 | 0.00 | 0.00 | 68 | 1015.1 |
| 20260902160532 | 86 | 173 | 4.0 | 11.0 | 0.00 | 0.00 | 0.00 | 68 | 1015.2 |
| 20260902160044 | 86 | 221 | 3.0 | 12.0 | 0.00 | 0.00 | 0.00 | 69 | 1015.2 |
| 20260902155530 | 86 | 235 | 6.0 | 12.0 | 0.00 | 0.00 | 0.00 | 69 | 1015.3 |
| 20260902155127 | 86 | 182 | 6.0 | 10.0 | 0.00 | 0.00 | 0.00 | 70 | 1015.3 |
| 20260902154539 | 85 | 230 | 5.0 | 10.0 | 0.00 | 0.00 | 0.00 | 70 | 1015.2 |
| 20260902154026 | 85 | 264 | 5.0 | 11.0 | 0.00 | 0.00 | 0.00 | 69 | 1015.4 |
| 20260902153524 | 85 | 235 | 3.0 | 11.0 | 0.00 | 0.00 | 0.00 | 69 | 1015.3 |
| 20260902153035 | 85 | 257 | 3.0 | 10.0 | 0.00 | 0.00 | 0.00 | 69 | 1015.3 |
| 20260902152521 | 85 | 220 | 5.0 | 10.0 | 0.00 | 0.00 | 0.00 | 70 | 1015.4 |
| 20260902152022 | 85 | 241 | 3.0 | 8.0 | 0.00 | 0.00 | 0.00 | 70 | 1015.4 |
| 20260902151521 | 85 | 233 | 5.0 | 8.0 | 0.00 | 0.00 | 0.00 | 70 | 1015.3 |
| 20260902151020 | 85 | 216 | 3.0 | 12.0 | 0.00 | 0.00 | 0.00 | 70 | 1015.3 |
| 20260902150518 | 85 | 245 | 7.0 | 14.0 | 0.00 | 0.00 | 0.00 | 69 | 1015.2 |
| 20260902150018 | 85 | 215 | 4.0 | 15.0 | 0.00 | 0.00 | 0.00 | 70 | 1015.2 |
| 20260902145517 | 85 | 162 | 6.0 | 15.0 | 0.00 | 0.00 | 0.00 | 71 | 1015.3 |
| 20260902145019 | 85 | 217 | 6.0 | 13.0 | 0.00 | 0.00 | 0.00 | 71 | 1015.3 |
| 20260902144515 | 84 | 295 | 6.0 | 13.0 | 0.00 | 0.00 | 0.00 | 71 | 1015.2 |
| 20260902144013 | 84 | 250 | 5.0 | 14.0 | 0.00 | 0.00 | 0.00 | 72 | 1015.2 |
| 20260902143512 | 84 | 252 | 3.0 | 14.0 | 0.00 | 0.00 | 0.00 | 73 | 1015.0 |
| 20260902143011 | 83 | 254 | 4.0 | 12.0 | 0.00 | 0.00 | 0.00 | 74 | 1015.0 |
| 20260902142512 | 83 | 227 | 5.0 | 14.0 | 0.00 | 0.00 | 0.00 | 75 | 1014.9 |
| 20260902142013 | 83 | 281 | 5.0 | 14.0 | 0.00 | 0.00 | 0.00 | 76 | 1014.9 |
| 20260902141507 | 82 | 301 | 5.0 | 11.0 | 0.00 | 0.00 | 0.00 | 76 | 1014.8 |
| 20260902141007 | 82 | 252 | 3.0 | 11.0 | 0.00 | 0.00 | 0.00 | 76 | 1014.9 |
| 20260902140505 | 82 | 239 | 6.0 | 15.0 | 0.00 | 0.00 | 0.00 | 77 | 1014.9 |
| 20260902140003 | 81 | 248 | 4.0 | 15.0 | 0.00 | 0.00 | 0.00 | 77 | 1014.9 |
| 20260902135502 | 81 | 213 | 6.0 | 13.0 | 0.00 | 0.00 | 0.00 | 78 | 1014.9 |
| 20260902135001 | 81 | 233 | 4.0 | 14.0 | 0.00 | 0.00 | 0.00 | 78 | 1014.8 |
| 20260902134603 | 81 | 245 | 8.0 | 14.0 | 0.00 | 0.00 | 0.00 | 78 | 1014.8 |
| 20260902134059 | 80 | 257 | 6.0 | 16.0 | 0.00 | 0.00 | 0.00 | 78 | 1014.7 |
| 20260902133559 | 80 | 240 | 8.0 | 16.0 | 0.00 | 0.00 | 0.00 | 78 | 1014.8 |
| 20260902133100 | 80 | 235 | 8.0 | 13.0 | 0.00 | 0.00 | 0.00 | 79 | 1014.8 |
| 20260902132601 | 80 | 199 | 5.0 | 19.0 | 0.00 | 0.00 | 0.00 | 79 | 1014.8 |
| 20260902132056 | 80 | 278 | 8.0 | 19.0 | 0.00 | 0.00 | 0.00 | 79 | 1014.8 |
| 20260902131603 | 80 | 239 | 11.0 | 18.0 | 0.00 | 0.00 | 0.00 | 79 | 1014.9 |
| 20260902131058 | 79 | 208 | 7.0 | 15.0 | 0.00 | 0.00 | 0.00 | 80 | 1014.8 |
| 20260902130555 | 79 | 264 | 6.0 | 12.0 | 0.00 | 0.00 | 0.00 | 80 | 1014.8 |
| 20260902130053 | 79 | 222 | 7.0 | 14.0 | 0.00 | 0.00 | 0.00 | 80 | 1014.7 |
| 20260902125552 | 79 | 178 | 8.0 | 14.0 | 0.00 | 0.00 | 0.00 | 81 | 1014.7 |
| 20260902125052 | 79 | 236 | 6.0 | 13.0 | 0.00 | 0.00 | 0.00 | 81 | 1014.8 |
| 20260902124603 | 78 | 243 | 7.0 | 14.0 | 0.00 | 0.00 | 0.00 | 82 | 1014.7 |
| 20260902124049 | 78 | 208 | 7.0 | 16.0 | 0.00 | 0.00 | 0.00 | 82 | 1014.8 |
| 20260902123552 | 78 | 248 | 8.0 | 16.0 | 0.00 | 0.00 | 0.00 | 83 | 1014.7 |
| 20260902123123 | 77 | 239 | 8.0 | 14.0 | 0.00 | 0.00 | 0.00 | 83 | 1014.7 |
| 20260902122549 | 77 | 242 | 7.0 | 13.0 | 0.00 | 0.00 | 0.00 | 83 | 1014.7 |
| 20260902122046 | 77 | 226 | 7.0 | 16.0 | 0.00 | 0.00 | 0.00 | 83 | 1014.7 |
| 20260902121550 | 77 | 245 | 7.0 | 16.0 | 0.00 | 0.00 | 0.00 | 84 | 1014.7 |
| 20260902121044 | 77 | 213 | 6.0 | 13.0 | 0.00 | 0.00 | 0.00 | 84 | 1014.7 |
| 20260902120536 | 77 | 198 | 5.0 | 13.0 | 0.00 | 0.00 | 0.00 | 84 | 1014.7 |
| 20260902120036 | 76 | 238 | 7.0 | 13.0 | 0.00 | 0.00 | 0.00 | 84 | 1014.7 |
| 20260902115543 | 76 | 235 | 7.0 | 13.0 | 0.00 | 0.00 | 0.00 | 84 | 1014.6 |
| 20260902115040 | 76 | 257 | 7.0 | 14.0 | 0.00 | 0.00 | 0.00 | 84 | 1014.5 |
| 20260902114542 | 76 | 236 | 6.0 | 14.0 | 0.00 | 0.00 | 0.00 | 84 | 1014.4 |
| 20260902114035 | 76 | 243 | 7.0 | 13.0 | 0.00 | 0.00 | 0.00 | 84 | 1014.3 |
| 20260902113536 | 76 | 233 | 6.0 | 14.0 | 0.00 | 0.00 | 0.00 | 84 | 1014.2 |
| 20260902113035 | 76 | 239 | 6.0 | 14.0 | 0.00 | 0.00 | 0.00 | 84 | 1014.2 |
| 20260902112534 | 76 | 283 | 7.0 | 12.0 | 0.00 | 0.00 | 0.00 | 84 | 1014.1 |
| 20260902112036 | 76 | 264 | 5.0 | 12.0 | 0.00 | 0.00 | 0.00 | 85 | 1014.1 |
| 20260902111543 | 76 | 225 | 6.0 | 14.0 | 0.00 | 0.00 | 0.00 | 85 | 1014.1 |
| 20260902111033 | 76 | 196 | 7.0 | 14.0 | 0.00 | 0.00 | 0.00 | 85 | 1014.0 |
| 20260902110532 | 76 | 243 | 5.0 | 13.0 | 0.00 | 0.00 | 0.00 | 85 | 1014.0 |
| 20260902110031 | 76 | 224 | 6.0 | 20.0 | 0.00 | 0.00 | 0.00 | 85 | 1014.0 |
| 20260902105533 | 76 | 317 | 5.0 | 20.0 | 0.00 | 0.00 | 0.00 | 85 | 1014.0 |
| 20260902105031 | 76 | 209 | 8.0 | 16.0 | 0.00 | 0.00 | 0.00 | 85 | 1014.0 |
| 20260902104533 | 76 | 245 | 8.0 | 13.0 | 0.00 | 0.00 | 0.00 | 85 | 1014.0 |
| 20260902104031 | 76 | 218 | 7.0 | 14.0 | 0.00 | 0.00 | 0.00 | 85 | 1013.9 |
| 20260902103530 | 76 | 197 | 8.0 | 14.0 | 0.00 | 0.00 | 0.00 | 85 | 1014.0 |
| 20260902103032 | 76 | 231 | 5.0 | 11.0 | 0.00 | 0.00 | 0.00 | 85 | 1013.9 |
| 20260902102534 | 76 | 208 | 6.0 | 11.0 | 0.00 | 0.00 | 0.00 | 85 | 1014.0 |
| 20260902102029 | 76 | 230 | 6.0 | 13.0 | 0.00 | 0.00 | 0.00 | 85 | 1014.0 |
| 20260902101529 | 76 | 202 | 4.0 | 14.0 | 0.00 | 0.00 | 0.00 | 85 | 1014.0 |
| 20260902101028 | 76 | 217 | 7.0 | 14.0 | 0.00 | 0.00 | 0.00 | 85 | 1013.9 |
| 20260902100527 | 76 | 221 | 6.0 | 14.0 | 0.00 | 0.00 | 0.00 | 84 | 1014.0 |
| 20260902100031 | 76 | 237 | 7.0 | 14.0 | 0.00 | 0.00 | 0.00 | 84 | 1013.9 |
| 20260902095526 | 76 | 231 | 4.0 | 12.0 | 0.00 | 0.00 | 0.00 | 84 | 1013.9 |
| 20260902095026 | 76 | 243 | 6.0 | 13.0 | 0.00 | 0.00 | 0.00 | 84 | 1014.0 |
| 20260902094525 | 76 | 188 | 5.0 | 15.0 | 0.00 | 0.00 | 0.00 | 84 | 1013.9 |
| 20260902094028 | 76 | 220 | 7.0 | 15.0 | 0.00 | 0.00 | 0.00 | 84 | 1013.8 |
| 20260902093523 | 76 | 201 | 6.0 | 14.0 | 0.00 | 0.00 | 0.00 | 84 | 1013.7 |
| 20260902093024 | 76 | 192 | 6.0 | 13.0 | 0.00 | 0.00 | 0.00 | 84 | 1014.0 |
| 20260902092523 | 76 | 205 | 5.0 | 12.0 | 0.00 | 0.00 | 0.00 | 84 | 1014.1 |